Regional Weather Roundup
Issued by NWS

Home | Current Version | Previous Version | Text Only | Print | Product List | Glossary Off
Versions: 1 2 3 4 5 6 7 8 9 10 11 12 13 14 15 16 17 18 19 20 21 22 23 24 25 26 27 28 29 30 31 32 33 34 35 36 37 38 39 40 41 42 43 44 45 46 47 48 49 50

000
ASUS43 KFSD 231710
RWRSD

WEATHER ROUNDUP FOR SOUTH DAKOTA
NATIONAL WEATHER SERVICE SIOUX FALLS SD
1200 PM CDT SUN APR 23 2017

NOTE: "FAIR" INDICATES FEW OR NO CLOUDS BELOW 12,000 FEET WITH NO
SIGNIFICANT WEATHER AND/OR OBSTRUCTIONS TO VISIBILITY.


SDZ001>005-009-010-012>017-231800-
NORTHWEST AND NORTH CENTRAL SOUTH DAKOTA

CITY           SKY/WX    TMP DP  RH WIND       PRES   REMARKS
BUFFALO          N/A     36  32  85 E17       29.78F
FAITH            N/A     53  43  68 NE13      29.81F
MOBRIDGE       PTSUNNY   48  35  60 E22       29.88F
$$

SDZ012>016-024>037-041>051-057-063-072>074-231800-
SOUTHWEST AND SOUTH CENTRAL SOUTH DAKOTA

CITY           SKY/WX    TMP DP  RH WIND       PRES   REMARKS
RAPID CTY ARPT CLOUDY    58  40  51 N6        29.80S
PIERRE         PTSUNNY   66  37  34 S16G26    29.83F
CUSTER         CLOUDY    56  26  31 W10G18    29.84F
ELLSWORTH AFB  PTSUNNY   55  39  54 N9        29.80  HAZE
PHILIP         MOSUNNY   67  38  34 SW18      29.78F
PINE RIDGE     CLOUDY    60  38  43 S18       29.84F
SPEARFISH      FAIR      54  41  62 NE9       29.81F
WINNER         FAIR      66  34  30 S30G37    29.88F
$$

SDZ004>011-016>023-039-040-231800-
NORTHEAST SOUTH DAKOTA

CITY           SKY/WX    TMP DP  RH WIND       PRES   REMARKS
ABERDEEN       CLOUDY    55  37  50 E10G18    29.95F
WATERTOWN      PTSUNNY   61  36  39 SW14      29.96F
BROOKINGS      PTSUNNY   65  34  31 SW16      29.97F
SISSETON         N/A     54  43  66 SE9       29.98F
$$

SDZ017-020-022-023-036>040-048>070-231800-
SOUTHEAST SOUTH DAKOTA

CITY           SKY/WX    TMP DP  RH WIND       PRES   REMARKS
SIOUX FALLS    PTSUNNY   65  40  39 S18G24    30.00F
HURON          MOSUNNY   64  34  32 SW21G30   29.93F
CHAMBERLAIN    MOSUNNY   67  36  31 SE23G30   29.91F
MITCHELL       CLOUDY    66  32  28 SW18G28   29.95F
YANKTON        MOSUNNY   66  30  26 S20G26    29.99F
$$

ABBREVIATIONS USED IN REMARKS
   TC - TEMPERATURE IN CELSIUS
  WCI - WIND CHILL INDEX
   HX - HEAT INDEX
  VSB - VISIBILITY





USA.gov is the U.S. government's official web portal to all federal, state and local government web resources and services.